Change the Weather History Date:

Thursday, March 28, 2013

  Actual Average Record
Temperature  
Mean Temperature 52 °F 58 °F  
Max Temperature 68 °F 69 °F 84 °F (1997)
Min Temperature 36 °F 47 °F 26 °F (1955)
Degree Days  
Heating Degree Days 13 8  
Month to date heating degree days 453 313  
Since 1 July heating degree days 2456 2622  
Cooling Degree Days 0 1  
Month to date cooling degree days 2 14  
Year to date cooling degree days 12 19  
Growing Degree Days 2 (Base 50)    
Moisture  
Dew Point 37 °F    
Average Humidity 57    
Maximum Humidity 82    
Minimum Humidity 32    
Precipitation  
Precipitation 0.00 in 0.18 in 2.71 in (2014)
Month to date precipitation 3.94 3.98  
Year to date precipitation 16.40 13.97  
Sea Level Pressure  
Sea Level Pressure 30.31 in    
Wind  
Wind Speed 4 mph (SE)    
Max Wind Speed 10 mph    
Max Gust Speed 14 mph    
Visibility 10 miles    
Events      
T = Trace of Precipitation, MM = Missing Value Source: NWS Daily Summary

Daily Weather History Graph

Daily Weather History Graph

Search for Another Location

Airport or City:

Trip Planner

Search our weather history database for the weather conditions in past years. The results will help you decide how hot, cold, wet, or windy it might be!

Date:

Astronomy

Mar. 28, 2013 Rise Set
Actual Time 6:56 AM CDT 7:21 PM CDT
Civil Twilight 6:31 AM CDT 7:46 PM CDT
Nautical Twilight 6:02 AM CDT 8:15 PM CDT
Astronomical Twilight 5:32 AM CDT 8:45 PM CDT
Moon 9:06 PM CDT (3/28) 7:30 AM CDT (3/28)
Length of Visible Light 13h 14m
Length of Day
12h 25m
Full, 98% of the Moon is Illuminated
Mar 28
Full
Apr 2
Last Quarter
Apr 10
New
Apr 18
First Quarter
Apr 25
Full

Hourly Weather History & Observations

Time (CDT) Temp. Windchill Dew Point Humidity Pressure Visibility Wind Dir Wind Speed Gust Speed Precip Events Conditions
12:53 AM 42.1 °F 40.2 °F 34.0 °F 73% 30.35 in 10.0 mi NNE 3.5 mph - N/A   Clear
1:53 AM 39.0 °F 36.8 °F 33.1 °F 79% 30.34 in 10.0 mi SE 3.5 mph - N/A   Clear
2:53 AM 37.9 °F 34.4 °F 32.0 °F 79% 30.33 in 10.0 mi ESE 4.6 mph - N/A   Clear
3:53 AM 39.0 °F 34.8 °F 32.0 °F 76% 30.32 in 10.0 mi ESE 5.8 mph - N/A   Clear
4:53 AM 37.9 °F 34.4 °F 32.0 °F 79% 30.32 in 10.0 mi ESE 4.6 mph - N/A   Clear
5:53 AM 39.0 °F 35.7 °F 30.9 °F 73% 30.33 in 10.0 mi ESE 4.6 mph - N/A   Clear
6:53 AM 41.0 °F - 32.0 °F 70% 30.33 in 10.0 mi Calm Calm - N/A   Clear
7:53 AM 41.0 °F - 32.0 °F 70% 30.36 in 10.0 mi Calm Calm - N/A   Clear
8:53 AM 48.0 °F - 37.9 °F 68% 30.37 in 10.0 mi Calm Calm - N/A   Mostly Cloudy
9:53 AM 53.1 °F - 37.9 °F 57% 30.38 in 10.0 mi South 4.6 mph - N/A   Clear
10:53 AM 57.0 °F - 37.0 °F 47% 30.38 in 10.0 mi SSW 3.5 mph - N/A   Clear
11:53 AM 62.1 °F - 39.0 °F 43% 30.37 in 10.0 mi SE 5.8 mph - N/A   Clear
12:53 PM 63.0 °F - 35.1 °F 35% 30.35 in 10.0 mi SW 5.8 mph - N/A   Clear
1:53 PM 64.9 °F - 37.0 °F 36% 30.32 in 10.0 mi SE 4.6 mph - N/A   Clear
2:53 PM 66.0 °F - 36.0 °F 33% 30.29 in 10.0 mi Calm Calm - N/A   Clear
3:53 PM 66.9 °F - 37.0 °F 33% 30.27 in 10.0 mi South 4.6 mph - N/A   Clear
4:53 PM 66.9 °F - 39.9 °F 37% 30.26 in 10.0 mi SSE 6.9 mph - N/A   Clear
5:53 PM 64.0 °F - 39.9 °F 41% 30.25 in 10.0 mi SSE 9.2 mph - N/A   Clear
6:53 PM 62.1 °F - 39.9 °F 44% 30.26 in 10.0 mi SE 6.9 mph - N/A   Clear
7:53 PM 57.9 °F - 42.1 °F 56% 30.27 in 10.0 mi SE 3.5 mph - N/A   Clear
8:53 PM 55.0 °F - 42.1 °F 62% 30.27 in 10.0 mi SE 3.5 mph - N/A   Clear
9:53 PM 52.0 °F - 43.0 °F 71% 30.28 in 10.0 mi ESE 5.8 mph - N/A   Clear
10:53 PM 54.0 °F - 42.1 °F 64% 30.28 in 10.0 mi ESE 4.6 mph - N/A   Clear
11:53 PM 52.0 °F - 42.1 °F 69% 30.27 in 10.0 mi SE 4.6 mph - N/A   Clear